GW6407 Weather Reports


time (UTC)temp
C
wind
direction
speed
KPH
gust
KPH
rain 1hr
cm
rain 24hr
cm
rain mn
cm
humidity
%
barometer
mb
20260503050005 9 188 1.6 12.9 0.00 0.00 0.00 55 1008.6
20260503044509 8 187 0.0 8.0 0.00 0.00 0.00 55 1008.7
20260503043006 8 202 3.2 9.7 0.00 0.00 0.00 56 1008.8
20260503041511 9 231 1.6 4.8 0.00 0.00 0.00 53 1009.0
20260503040011 9 229 0.0 6.4 0.00 0.00 0.00 53 1009.0
20260503034507 8 186 3.2 6.4 0.00 0.00 0.00 56 1009.2
20260503033011 8 186 3.2 6.4 0.00 0.00 0.00 54 1009.3
20260503031513 8 195 1.6 4.8 0.00 0.00 0.00 60 1009.6
20260503030012 8 185 1.6 4.8 0.00 0.00 0.00 57 1009.7
20260503024514 10 184 0.0 3.2 0.00 0.00 0.00 58 1009.8
20260503023013 10 184 1.6 1.6 0.00 0.00 0.00 51 1010.0
20260503021512 10 187 0.0 3.2 0.00 0.00 0.00 49 1010.1
20260503020015 11 187 0.0 4.8 0.00 0.00 0.00 54 1010.1
20260503014514 11 198 1.6 3.2 0.00 0.00 0.00 46 1010.1
20260503013024 11 206 1.6 9.7 0.00 0.00 0.00 45 1010.2
20260503011515 12 244 1.6 4.8 0.00 0.00 0.00 44 1010.2
20260503010015 12 278 1.6 4.8 0.00 0.00 0.00 41 1010.2
20260503004516 12 277 3.2 9.7 0.00 0.00 0.00 40 1010.4
20260503003016 12 296 0.0 3.2 0.00 0.00 0.00 39 1010.6
20260503001513 13 328 1.6 4.8 0.00 0.00 0.00 37 1010.7
20260503000017 13 240 1.6 12.9 0.00 0.00 0.00 35 1010.7
20260502234528 13 287 1.6 14.5 0.00 0.00 0.00 34 1010.7
20260502233030 13 224 3.2 8.0 0.00 0.00 0.00 34 1010.9
20260502231513 13 301 6.4 14.5 0.00 0.00 0.00 34 1011.0
20260502230025 13 316 6.4 17.7 0.00 0.00 0.00 33 1011.0
20260502224503 13 314 8.0 19.3 0.00 0.00 0.00 31 1011.1
20260502223004 14 323 6.4 14.5 0.00 0.00 0.00 31 1011.3
20260502221515 15 344 6.4 19.3 0.00 0.00 0.00 28 1011.3
20260502220023 15 344 6.4 19.3 0.00 0.00 0.00 28 1011.3
20260502214523 15 306 4.8 16.1 0.00 0.00 0.00 30 1011.5
20260502213003 15 270 6.4 27.4 0.00 0.00 0.00 28 1011.7
20260502211512 14 250 6.4 12.9 0.00 0.00 0.00 28 1011.9
20260502210015 13 276 3.2 25.7 0.00 0.00 0.00 30 1012.1
20260502204520 15 336 6.4 17.7 0.00 0.00 0.00 30 1012.2
20260502203024 15 316 4.8 14.5 0.00 0.00 0.00 31 1012.1
20260502201508 15 281 6.4 19.3 0.00 0.00 0.00 28 1012.4
20260502200013 14 213 1.6 17.7 0.00 0.00 0.00 30 1012.6
20260502194528 14 359 9.7 20.9 0.00 0.00 0.00 26 1013.1
20260502193023 15 309 4.8 17.7 0.00 0.00 0.00 29 1013.2
20260502191529 13 294 6.4 12.9 0.00 0.00 0.00 29 1013.5
20260502190011 13 211 6.4 20.9 0.00 0.00 0.00 28 1013.8
20260502184519 14 247 4.8 16.1 0.00 0.00 0.00 28 1013.8
20260502183021 13 253 4.8 11.3 0.00 0.00 0.00 32 1014.0
20260502181529 13 326 4.8 16.1 0.00 0.00 0.00 33 1014.2
20260502163023 11 266 0.0 9.7 0.00 0.00 0.00 35 1015.7
20260502161523 11 311 6.4 17.7 0.00 0.00 0.00 35 1016.0
20260502151528 10 265 6.4 12.9 0.00 0.00 0.00 40 1016.5
20260502123022 -3 72 0.0 1.6 0.00 0.00 0.00 91 1017.7
20260502121512 -5 34 0.0 3.2 0.00 0.00 0.00 92 1017.7
20260502114523 -5 34 0.0 0.0 0.00 0.00 0.00 91 1017.7
20260502113025 -5 34 0.0 0.0 0.00 0.00 0.00 90 1017.7
20260502111512 -5 34 0.0 0.0 0.00 0.00 0.00 90 1017.6
20260502110020 -5 34 0.0 0.0 0.00 0.00 0.00 90 1017.5
20260502104517 -5 34 0.0 0.0 0.00 0.00 0.00 90 1017.6
20260502103023 -5 34 0.0 0.0 0.00 0.00 0.00 89 1017.6
20260502101526 -5 34 0.0 0.0 0.00 0.00 0.00 89 1017.8
20260502071518 -3 34 0.0 0.0 0.00 0.00 0.00 86 1018.1
20260502070024 -3 34 0.0 0.0 0.00 0.00 0.00 85 1018.1
20260502064508 -3 34 0.0 0.0 0.00 0.00 0.00 85 1018.1
20260502063013 -3 34 0.0 0.0 0.00 0.00 0.00 84 1018.3
20260502061528 -3 34 0.0 0.0 0.00 0.00 0.00 83 1018.4
20260502060022 -3 34 0.0 0.0 0.00 0.00 0.00 82 1018.3
20260502054521 -2 34 0.0 0.0 0.00 0.00 0.00 82 1018.2
20260502053025 -2 34 0.0 0.0 0.00 0.00 0.00 80 1018.1
20260502051521 -2 34 0.0 0.0 0.00 0.00 0.00 80 1018.1